owner,sensor,date,latitude,longitude,vertical_datum,wind_speed,wind_to_direction,wind_speed_of_gust,qcFlag 
TCOON,ioos:station:TCOON:006:1,2008-12-01T00:00:00Z,27.8217,-97.2040,0.0,1.4,350.0,2.3,'11111222,11111222,11111222' 
TCOON,ioos:station:TCOON:006:1,2008-12-01T02:00:00Z,27.8217,-97.2040,0.0,2.1,334.0,3.5,'11111222,11111222,11111222' 
TCOON,ioos:station:TCOON:006:1,2008-12-01T03:00:00Z,27.8217,-97.2040,0.0,2.1,311.0,3.9,'11111222,11111222,11111222' 
TCOON,ioos:station:TCOON:006:1,2008-12-01T04:00:00Z,27.8217,-97.2040,0.0,3.9,297.0,5.4,'11111222,11111222,11111222' 
TCOON,ioos:station:TCOON:006:1,2008-12-01T05:00:00Z,27.8217,-97.2040,0.0,3.0,327.0,5.7,'11111222,11111222,11111222' 
TCOON,ioos:station:TCOON:006:1,2008-12-01T06:00:00Z,27.8217,-97.2040,0.0,1.6,307.0,2.3,'11111222,11111222,11111222' 
TCOON,ioos:station:TCOON:006:1,2008-12-01T07:00:00Z,27.8217,-97.2040,0.0,2.0,289.0,3.1,'11111222,11111222,11111222' 
TCOON,ioos:station:TCOON:006:1,2008-12-01T08:00:00Z,27.8217,-97.2040,0.0,2.3,295.0,3.3,'11111222,11111222,11111222' 
TCOON,ioos:station:TCOON:006:1,2008-12-01T09:00:00Z,27.8217,-97.2040,0.0,3.0,289.0,3.9,'11111222,11111222,11111222' 
TCOON,ioos:station:TCOON:006:1,2008-12-01T10:00:00Z,27.8217,-97.2040,0.0,4.5,290.0,5.9,'11111222,11111222,11111222' 
TCOON,ioos:station:TCOON:006:1,2008-12-01T11:00:00Z,27.8217,-97.2040,0.0,5.0,295.0,7.1,'11111222,11111222,11111222' 
TCOON,ioos:station:TCOON:006:1,2008-12-01T12:00:00Z,27.8217,-97.2040,0.0,3.2,297.0,5.7,'11111222,11111222,11111222' 
TCOON,ioos:station:TCOON:006:1,2008-12-01T13:00:00Z,27.8217,-97.2040,0.0,4.8,287.0,6.5,'11111222,11111222,11111222' 
TCOON,ioos:station:TCOON:006:1,2008-12-01T14:00:00Z,27.8217,-97.2040,0.0,3.9,291.0,5.6,'11111222,11111222,11111222' 
TCOON,ioos:station:TCOON:006:1,2008-12-01T15:00:00Z,27.8217,-97.2040,0.0,5.2,284.0,7.2,'11111222,11111222,11111222' 
TCOON,ioos:station:TCOON:006:1,2008-12-01T16:00:00Z,27.8217,-97.2040,0.0,4.5,280.0,7.1,'11111222,11111222,11111222' 
TCOON,ioos:station:TCOON:006:1,2008-12-01T17:00:00Z,27.8217,-97.2040,0.0,5.2,298.0,8.2,'11111222,11111222,11111222' 
TCOON,ioos:station:TCOON:006:1,2008-12-01T18:00:00Z,27.8217,-97.2040,0.0,6.3,290.0,8.3,'11111222,11111222,11111222' 
TCOON,ioos:station:TCOON:006:1,2008-12-01T19:00:00Z,27.8217,-97.2040,0.0,6.5,304.0,13.0,'11111222,11111222,11111222' 
TCOON,ioos:station:TCOON:006:1,2008-12-01T20:00:00Z,27.8217,-97.2040,0.0,5.7,307.0,9.8,'11111222,11111222,11111222' 
TCOON,ioos:station:TCOON:006:1,2008-12-01T21:00:00Z,27.8217,-97.2040,0.0,5.6,295.0,9.7,'11111222,11111222,11111222' 
TCOON,ioos:station:TCOON:006:1,2008-12-01T22:00:00Z,27.8217,-97.2040,0.0,3.5,321.0,6.8,'11111222,11111222,11111222' 
TCOON,ioos:station:TCOON:006:1,2008-12-01T23:00:00Z,27.8217,-97.2040,0.0,1.3,334.0,3.3,'11111222,11111222,11111222' 
TCOON,ioos:station:TCOON:006:1,2008-12-02T00:00:00Z,27.8217,-97.2040,0.0,1.5,350.0,2.7,'11111222,11111222,11111222' 
TCOON,ioos:station:TCOON:006:1,2008-12-02T01:00:00Z,27.8217,-97.2040,0.0,0.8,11.0,2.9,'11111222,11111222,11111222' 
TCOON,ioos:station:TCOON:006:1,2008-12-02T02:00:00Z,27.8217,-97.2040,0.0,3.2,30.0,4.1,'11111222,11111222,11111222' 
TCOON,ioos:station:TCOON:006:1,2008-12-02T03:00:00Z,27.8217,-97.2040,0.0,2.7,30.0,4.3,'11111222,11111222,11111222' 
TCOON,ioos:station:TCOON:006:1,2008-12-02T04:00:00Z,27.8217,-97.2040,0.0,1.6,41.0,3.2,'11111222,11111222,11111222' 
TCOON,ioos:station:TCOON:006:1,2008-12-02T05:00:00Z,27.8217,-97.2040,0.0,3.4,49.0,5.3,'11111222,11111222,11111222' 
TCOON,ioos:station:TCOON:006:1,2008-12-02T06:00:00Z,27.8217,-97.2040,0.0,2.1,51.0,3.5,'11111222,11111222,11111222' 
TCOON,ioos:station:TCOON:006:1,2008-12-02T07:00:00Z,27.8217,-97.2040,0.0,2.1,62.0,3.1,'11111222,11111222,11111222' 
TCOON,ioos:station:TCOON:006:1,2008-12-02T08:00:00Z,27.8217,-97.2040,0.0,3.0,81.0,3.9,'11111222,11111222,11111222' 
TCOON,ioos:station:TCOON:006:1,2008-12-02T09:00:00Z,27.8217,-97.2040,0.0,2.3,93.0,3.7,'11111222,11111222,11111222' 
TCOON,ioos:station:TCOON:006:1,2008-12-02T10:00:00Z,27.8217,-97.2040,0.0,1.9,118.0,3.7,'11111222,11111222,11111222' 
TCOON,ioos:station:TCOON:006:1,2008-12-02T11:00:00Z,27.8217,-97.2040,0.0,3.1,139.0,4.4,'11111222,11111222,11111222' 
TCOON,ioos:station:TCOON:006:1,2008-12-02T12:00:00Z,27.8217,-97.2040,0.0,3.8,142.0,5.1,'11111222,11111222,11111222' 
TCOON,ioos:station:TCOON:006:1,2008-12-02T13:00:00Z,27.8217,-97.2040,0.0,4.1,218.0,5.9,'11111222,11111222,11111222' 
TCOON,ioos:station:TCOON:006:1,2008-12-02T14:00:00Z,27.8217,-97.2040,0.0,3.9,212.0,5.3,'11111222,11111222,11111222' 
TCOON,ioos:station:TCOON:006:1,2008-12-02T15:00:00Z,27.8217,-97.2040,0.0,3.4,206.0,4.6,'11111222,11111222,11111222' 
TCOON,ioos:station:TCOON:006:1,2008-12-02T16:00:00Z,27.8217,-97.2040,0.0,5.4,198.0,6.4,'11111222,11111222,11111222' 
TCOON,ioos:station:TCOON:006:1,2008-12-02T17:00:00Z,27.8217,-97.2040,0.0,5.4,189.0,6.6,'11111222,11111222,11111222' 
TCOON,ioos:station:TCOON:006:1,2008-12-02T18:00:00Z,27.8217,-97.2040,0.0,6.1,170.0,7.7,'11111222,11111222,11111222' 
TCOON,ioos:station:TCOON:006:1,2008-12-02T19:00:00Z,27.8217,-97.2040,0.0,6.3,170.0,7.1,'11111222,11111222,11111222' 
TCOON,ioos:station:TCOON:006:1,2008-12-02T20:00:00Z,27.8217,-97.2040,0.0,7.2,162.0,8.6,'11111222,11111222,11111222' 
TCOON,ioos:station:TCOON:006:1,2008-12-02T21:00:00Z,27.8217,-97.2040,0.0,6.6,155.0,10.1,'11111222,11111222,11111222' 
TCOON,ioos:station:TCOON:006:1,2008-12-02T22:00:00Z,27.8217,-97.2040,0.0,7.5,157.0,9.3,'11111222,11111222,11111222' 
TCOON,ioos:station:TCOON:006:1,2008-12-02T23:00:00Z,27.8217,-97.2040,0.0,8.4,161.0,10.5,'11111222,11111222,11111222' 
TCOON,ioos:station:TCOON:006:1,2008-12-03T00:00:00Z,27.8217,-97.2040,0.0,8.0,164.0,9.5,'11111222,11111222,11111222' 
TCOON,ioos:station:TCOON:006:1,2008-12-03T01:00:00Z,27.8217,-97.2040,0.0,7.6,167.0,10.0,'11111222,11111222,11111222' 
TCOON,ioos:station:TCOON:006:1,2008-12-03T02:00:00Z,27.8217,-97.2040,0.0,7.1,168.0,8.9,'11111222,11111222,11111222' 
TCOON,ioos:station:TCOON:006:1,2008-12-03T03:00:00Z,27.8217,-97.2040,0.0,7.5,169.0,8.9,'11111222,11111222,11111222' 
TCOON,ioos:station:TCOON:006:1,2008-12-03T04:00:00Z,27.8217,-97.2040,0.0,7.9,165.0,9.8,'11111222,11111222,11111222' 
TCOON,ioos:station:TCOON:006:1,2008-12-03T05:00:00Z,27.8217,-97.2040,0.0,6.9,166.0,9.1,'11111222,11111222,11111222' 
TCOON,ioos:station:TCOON:006:1,2008-12-03T06:00:00Z,27.8217,-97.2040,0.0,5.9,169.0,7.4,'11111222,11111222,11111222' 
TCOON,ioos:station:TCOON:006:1,2008-12-03T07:00:00Z,27.8217,-97.2040,0.0,7.7,169.0,9.0,'11111222,11111222,11111222' 
TCOON,ioos:station:TCOON:006:1,2008-12-03T08:00:00Z,27.8217,-97.2040,0.0,6.1,171.0,7.7,'11111222,11111222,11111222' 
TCOON,ioos:station:TCOON:006:1,2008-12-03T09:00:00Z,27.8217,-97.2040,0.0,6.9,168.0,7.6,'11111222,11111222,11111222' 
TCOON,ioos:station:TCOON:006:1,2008-12-03T10:00:00Z,27.8217,-97.2040,0.0,6.8,173.0,8.5,'11111222,11111222,11111222' 
TCOON,ioos:station:TCOON:006:1,2008-12-03T11:00:00Z,27.8217,-97.2040,0.0,7.0,171.0,8.3,'11111222,11111222,11111222' 
TCOON,ioos:station:TCOON:006:1,2008-12-03T12:00:00Z,27.8217,-97.2040,0.0,6.7,177.0,7.1,'11111222,11111222,11111222' 
TCOON,ioos:station:TCOON:006:1,2008-12-03T13:00:00Z,27.8217,-97.2040,0.0,6.0,188.0,7.3,'11111222,11111222,11111222' 
TCOON,ioos:station:TCOON:006:1,2008-12-03T14:00:00Z,27.8217,-97.2040,0.0,5.7,184.0,7.0,'11111222,11111222,11111222' 
TCOON,ioos:station:TCOON:006:1,2008-12-03T15:00:00Z,27.8217,-97.2040,0.0,8.0,184.0,9.4,'11111222,11111222,11111222' 
TCOON,ioos:station:TCOON:006:1,2008-12-03T16:00:00Z,27.8217,-97.2040,0.0,7.5,175.0,8.7,'11111222,11111222,11111222' 
TCOON,ioos:station:TCOON:006:1,2008-12-03T17:00:00Z,27.8217,-97.2040,0.0,9.7,164.0,12.3,'11111222,11111222,11111222' 
TCOON,ioos:station:TCOON:006:1,2008-12-03T18:00:00Z,27.8217,-97.2040,0.0,8.2,171.0,10.4,'11111222,11111222,11111222' 
TCOON,ioos:station:TCOON:006:1,2008-12-03T19:00:00Z,27.8217,-97.2040,0.0,7.2,162.0,8.7,'11111222,11111222,11111222' 
TCOON,ioos:station:TCOON:006:1,2008-12-03T20:00:00Z,27.8217,-97.2040,0.0,8.0,157.0,9.2,'11111222,11111222,11111222' 
TCOON,ioos:station:TCOON:006:1,2008-12-03T21:00:00Z,27.8217,-97.2040,0.0,7.4,167.0,9.7,'11111222,11111222,11111222' 
TCOON,ioos:station:TCOON:006:1,2008-12-03T22:00:00Z,27.8217,-97.2040,0.0,6.3,162.0,8.4,'11111222,11111222,11111222' 
TCOON,ioos:station:TCOON:006:1,2008-12-03T23:00:00Z,27.8217,-97.2040,0.0,6.9,165.0,8.7,'11111222,11111222,11111222' 
TCOON,ioos:station:TCOON:006:1,2008-12-04T00:00:00Z,27.8217,-97.2040,0.0,6.4,173.0,7.6,'11111222,11111222,11111222' 
TCOON,ioos:station:TCOON:006:1,2008-12-04T01:00:00Z,27.8217,-97.2040,0.0,5.6,168.0,6.8,'11111222,11111222,11111222' 
TCOON,ioos:station:TCOON:006:1,2008-12-04T02:00:00Z,27.8217,-97.2040,0.0,3.4,180.0,4.2,'11111222,11111222,11111222' 
TCOON,ioos:station:TCOON:006:1,2008-12-04T03:00:00Z,27.8217,-97.2040,0.0,2.1,195.0,2.7,'11111222,11111222,11111222' 
TCOON,ioos:station:TCOON:006:1,2008-12-04T04:00:00Z,27.8217,-97.2040,0.0,0.9,267.0,1.1,'11111222,11111222,11111222' 
TCOON,ioos:station:TCOON:006:1,2008-12-04T05:00:00Z,27.8217,-97.2040,0.0,6.5,343.0,9.7,'11111222,11111222,11111222' 
TCOON,ioos:station:TCOON:006:1,2008-12-04T06:00:00Z,27.8217,-97.2040,0.0,3.3,4.0,6.8,'11111222,11111222,11111222' 
TCOON,ioos:station:TCOON:006:1,2008-12-04T07:00:00Z,27.8217,-97.2040,0.0,3.2,357.0,9.8,'11111222,11111222,11111222' 
TCOON,ioos:station:TCOON:006:1,2008-12-04T08:00:00Z,27.8217,-97.2040,0.0,2.8,8.0,6.4,'11111222,11111222,11111222' 
TCOON,ioos:station:TCOON:006:1,2008-12-04T09:00:00Z,27.8217,-97.2040,0.0,2.0,1.0,5.5,'11111222,11111222,11111222' 
TCOON,ioos:station:TCOON:006:1,2008-12-04T10:00:00Z,27.8217,-97.2040,0.0,4.4,351.0,7.8,'11111222,11111222,11111222' 
TCOON,ioos:station:TCOON:006:1,2008-12-04T11:00:00Z,27.8217,-97.2040,0.0,3.4,349.0,6.2,'11111222,11111222,11111222' 
TCOON,ioos:station:TCOON:006:1,2008-12-04T12:00:00Z,27.8217,-97.2040,0.0,5.1,344.0,9.8,'11111222,11111222,11111222' 
TCOON,ioos:station:TCOON:006:1,2008-12-04T13:00:00Z,27.8217,-97.2040,0.0,3.1,349.0,7.9,'11111222,11111222,11111222' 
TCOON,ioos:station:TCOON:006:1,2008-12-04T14:00:00Z,27.8217,-97.2040,0.0,2.5,8.0,8.6,'11111222,11111222,11111222' 
TCOON,ioos:station:TCOON:006:1,2008-12-04T15:00:00Z,27.8217,-97.2040,0.0,2.5,4.0,7.4,'11111222,11111222,11111222' 
TCOON,ioos:station:TCOON:006:1,2008-12-04T16:00:00Z,27.8217,-97.2040,0.0,3.0,352.0,7.1,'11111222,11111222,11111222' 
TCOON,ioos:station:TCOON:006:1,2008-12-04T17:00:00Z,27.8217,-97.2040,0.0,1.5,12.0,5.0,'11111222,11111222,11111222' 
TCOON,ioos:station:TCOON:006:1,2008-12-04T18:00:00Z,27.8217,-97.2040,0.0,2.5,356.0,5.0,'11111222,11111222,11111222' 
TCOON,ioos:station:TCOON:006:1,2008-12-04T19:00:00Z,27.8217,-97.2040,0.0,2.8,11.0,4.7,'11111222,11111222,11111222' 
TCOON,ioos:station:TCOON:006:1,2008-12-04T20:00:00Z,27.8217,-97.2040,0.0,2.2,22.0,6.2,'11111222,11111222,11111222' 
TCOON,ioos:station:TCOON:006:1,2008-12-04T21:00:00Z,27.8217,-97.2040,0.0,1.9,2.0,4.6,'11111222,11111222,11111222' 
TCOON,ioos:station:TCOON:006:1,2008-12-04T22:00:00Z,27.8217,-97.2040,0.0,1.3,11.0,2.7,'11111222,11111222,11111222' 
TCOON,ioos:station:TCOON:006:1,2008-12-04T23:00:00Z,27.8217,-97.2040,0.0,1.1,19.0,3.4,'11111222,11111222,11111222' 
TCOON,ioos:station:TCOON:006:1,2008-12-05T00:00:00Z,27.8217,-97.2040,0.0,4.5,51.0,7.3,'11111222,11111222,11111222' 
TCOON,ioos:station:TCOON:006:1,2008-12-05T01:00:00Z,27.8217,-97.2040,0.0,2.4,17.0,5.7,'11111222,11111222,11111222' 
TCOON,ioos:station:TCOON:006:1,2008-12-05T02:00:00Z,27.8217,-97.2040,0.0,2.6,20.0,4.7,'11111222,11111222,11111222' 
TCOON,ioos:station:TCOON:006:1,2008-12-05T03:00:00Z,27.8217,-97.2040,0.0,4.4,37.0,6.6,'11111222,11111222,11111222' 
TCOON,ioos:station:TCOON:006:1,2008-12-05T04:00:00Z,27.8217,-97.2040,0.0,4.4,26.0,6.0,'11111222,11111222,11111222' 
TCOON,ioos:station:TCOON:006:1,2008-12-05T05:00:00Z,27.8217,-97.2040,0.0,1.5,3.0,3.7,'11111222,11111222,11111222' 
TCOON,ioos:station:TCOON:006:1,2008-12-05T06:00:00Z,27.8217,-97.2040,0.0,3.2,348.0,5.6,'11111222,11111222,11111222' 
TCOON,ioos:station:TCOON:006:1,2008-12-05T07:00:00Z,27.8217,-97.2040,0.0,1.6,14.0,4.4,'11111222,11111222,11111222' 
TCOON,ioos:station:TCOON:006:1,2008-12-05T08:00:00Z,27.8217,-97.2040,0.0,1.6,7.0,4.2,'11111222,11111222,11111222' 
TCOON,ioos:station:TCOON:006:1,2008-12-05T09:00:00Z,27.8217,-97.2040,0.0,2.8,15.0,6.3,'11111222,11111222,11111222' 
TCOON,ioos:station:TCOON:006:1,2008-12-05T10:00:00Z,27.8217,-97.2040,0.0,4.7,20.0,7.8,'11111222,11111222,11111222' 
TCOON,ioos:station:TCOON:006:1,2008-12-05T11:00:00Z,27.8217,-97.2040,0.0,1.7,10.0,3.8,'11111222,11111222,11111222' 
TCOON,ioos:station:TCOON:006:1,2008-12-05T12:00:00Z,27.8217,-97.2040,0.0,2.7,19.0,5.9,'11111222,11111222,11111222' 
TCOON,ioos:station:TCOON:006:1,2008-12-05T13:00:00Z,27.8217,-97.2040,0.0,2.6,22.0,6.1,'11111222,11111222,11111222' 
TCOON,ioos:station:TCOON:006:1,2008-12-05T14:00:00Z,27.8217,-97.2040,0.0,2.3,17.0,5.5,'11111222,11111222,11111222' 
TCOON,ioos:station:TCOON:006:1,2008-12-05T15:00:00Z,27.8217,-97.2040,0.0,1.8,3.0,3.9,'11111222,11111222,11111222' 
TCOON,ioos:station:TCOON:006:1,2008-12-05T16:00:00Z,27.8217,-97.2040,0.0,1.6,19.0,4.1,'11111222,11111222,11111222' 
TCOON,ioos:station:TCOON:006:1,2008-12-05T17:00:00Z,27.8217,-97.2040,0.0,1.9,12.0,4.7,'11111222,11111222,11111222' 
TCOON,ioos:station:TCOON:006:1,2008-12-05T18:00:00Z,27.8217,-97.2040,0.0,1.7,1.0,5.3,'11111222,11111222,11111222' 
TCOON,ioos:station:TCOON:006:1,2008-12-05T19:00:00Z,27.8217,-97.2040,0.0,1.7,354.0,4.0,'11111222,11111222,11111222' 
TCOON,ioos:station:TCOON:006:1,2008-12-05T20:00:00Z,27.8217,-97.2040,0.0,1.6,356.0,2.9,'11111222,11111222,11111222' 
TCOON,ioos:station:TCOON:006:1,2008-12-05T21:00:00Z,27.8217,-97.2040,0.0,1.0,360.0,4.8,'11111222,11144222,11111222' 
TCOON,ioos:station:TCOON:006:1,2008-12-05T22:00:00Z,27.8217,-97.2040,0.0,1.6,350.0,4.1,'11111222,11111222,11111222' 
TCOON,ioos:station:TCOON:006:1,2008-12-05T23:00:00Z,27.8217,-97.2040,0.0,0.8,21.0,1.3,'11111222,11111222,11111222' 
TCOON,ioos:station:TCOON:006:1,2008-12-06T00:00:00Z,27.8217,-97.2040,0.0,0.7,11.0,2.0,'11111222,11111222,11111222' 
TCOON,ioos:station:TCOON:006:1,2008-12-06T01:00:00Z,27.8217,-97.2040,0.0,1.2,355.0,2.1,'11111222,11111222,11111222' 
TCOON,ioos:station:TCOON:006:1,2008-12-06T02:00:00Z,27.8217,-97.2040,0.0,1.9,343.0,3.1,'11111222,11111222,11111222' 
TCOON,ioos:station:TCOON:006:1,2008-12-06T03:00:00Z,27.8217,-97.2040,0.0,0.7,360.0,1.9,'11111222,11144222,11111222' 
TCOON,ioos:station:TCOON:006:1,2008-12-06T04:00:00Z,27.8217,-97.2040,0.0,0.4,349.0,1.3,'11111222,11111222,11111222' 
TCOON,ioos:station:TCOON:006:1,2008-12-06T05:00:00Z,27.8217,-97.2040,0.0,1.2,338.0,1.7,'11111222,11111222,11111222' 
TCOON,ioos:station:TCOON:006:1,2008-12-06T06:00:00Z,27.8217,-97.2040,0.0,1.7,344.0,2.2,'11111222,11111222,11111222' 
TCOON,ioos:station:TCOON:006:1,2008-12-06T07:00:00Z,27.8217,-97.2040,0.0,1.8,344.0,2.0,'11111222,11111222,11111222' 
TCOON,ioos:station:TCOON:006:1,2008-12-06T08:00:00Z,27.8217,-97.2040,0.0,1.5,341.0,2.3,'11111222,11111222,11111222' 
TCOON,ioos:station:TCOON:006:1,2008-12-06T09:00:00Z,27.8217,-97.2040,0.0,0.4,15.0,0.8,'11111222,11111222,11111222' 
TCOON,ioos:station:TCOON:006:1,2008-12-06T10:00:00Z,27.8217,-97.2040,0.0,1.5,340.0,2.1,'11111222,11111222,11111222' 
TCOON,ioos:station:TCOON:006:1,2008-12-06T11:00:00Z,27.8217,-97.2040,0.0,1.0,352.0,2.0,'11111222,11111222,11111222' 
TCOON,ioos:station:TCOON:006:1,2008-12-06T12:00:00Z,27.8217,-97.2040,0.0,1.5,342.0,1.7,'11111222,11111222,11111222' 
TCOON,ioos:station:TCOON:006:1,2008-12-06T13:00:00Z,27.8217,-97.2040,0.0,1.1,354.0,2.1,'11111222,11111222,11111222' 
TCOON,ioos:station:TCOON:006:1,2008-12-06T14:00:00Z,27.8217,-97.2040,0.0,1.3,6.0,2.3,'11111222,11111222,11111222' 
TCOON,ioos:station:TCOON:006:1,2008-12-06T15:00:00Z,27.8217,-97.2040,0.0,0.6,17.0,1.6,'11111222,11111222,11111222' 
TCOON,ioos:station:TCOON:006:1,2008-12-06T16:00:00Z,27.8217,-97.2040,0.0,1.5,130.0,2.0,'11111222,11111222,11111222' 
TCOON,ioos:station:TCOON:006:1,2008-12-06T17:00:00Z,27.8217,-97.2040,0.0,2.1,106.0,2.9,'11111222,11111222,11111222' 
TCOON,ioos:station:TCOON:006:1,2008-12-06T18:00:00Z,27.8217,-97.2040,0.0,3.0,86.0,4.0,'11111222,11111222,11111222' 
TCOON,ioos:station:TCOON:006:1,2008-12-06T19:00:00Z,27.8217,-97.2040,0.0,3.5,77.0,4.5,'11111222,11111222,11111222' 
TCOON,ioos:station:TCOON:006:1,2008-12-06T20:00:00Z,27.8217,-97.2040,0.0,2.5,78.0,3.3,'11111222,11111222,11111222' 
TCOON,ioos:station:TCOON:006:1,2008-12-06T21:00:00Z,27.8217,-97.2040,0.0,3.6,114.0,4.8,'11111222,11111222,11111222' 
TCOON,ioos:station:TCOON:006:1,2008-12-06T22:00:00Z,27.8217,-97.2040,0.0,2.8,81.0,4.0,'11111222,11111222,11111222' 
TCOON,ioos:station:TCOON:006:1,2008-12-07T00:00:00Z,27.8217,-97.2040,0.0,2.2,68.0,2.9,'11111222,11111222,11111222' 
TCOON,ioos:station:TCOON:006:1,2008-12-07T01:00:00Z,27.8217,-97.2040,0.0,1.5,67.0,2.1,'11111222,11111222,11111222' 
TCOON,ioos:station:TCOON:006:1,2008-12-07T02:00:00Z,27.8217,-97.2040,0.0,0.7,74.0,1.6,'11111222,11111222,11111222' 
TCOON,ioos:station:TCOON:006:1,2008-12-07T03:00:00Z,27.8217,-97.2040,0.0,0.9,67.0,1.9,'11111222,11111222,11111222' 
TCOON,ioos:station:TCOON:006:1,2008-12-07T04:00:00Z,27.8217,-97.2040,0.0,1.3,34.0,2.4,'11111222,11111222,11111222' 
TCOON,ioos:station:TCOON:006:1,2008-12-07T05:00:00Z,27.8217,-97.2040,0.0,1.3,39.0,2.1,'11111222,11111222,11111222' 
TCOON,ioos:station:TCOON:006:1,2008-12-07T06:00:00Z,27.8217,-97.2040,0.0,1.5,12.0,2.2,'11111222,11111222,11111222' 
TCOON,ioos:station:TCOON:006:1,2008-12-07T07:00:00Z,27.8217,-97.2040,0.0,1.5,355.0,2.1,'11111222,11111222,11111222' 
TCOON,ioos:station:TCOON:006:1,2008-12-07T08:00:00Z,27.8217,-97.2040,0.0,1.7,4.0,2.6,'11111222,11111222,11111222' 
TCOON,ioos:station:TCOON:006:1,2008-12-07T09:00:00Z,27.8217,-97.2040,0.0,1.4,7.0,3.1,'11111222,11111222,11111222' 
TCOON,ioos:station:TCOON:006:1,2008-12-07T10:00:00Z,27.8217,-97.2040,0.0,1.4,8.0,2.8,'11111222,11111222,11111222' 
TCOON,ioos:station:TCOON:006:1,2008-12-07T11:00:00Z,27.8217,-97.2040,0.0,1.8,8.0,2.9,'11111222,11111222,11111222' 
TCOON,ioos:station:TCOON:006:1,2008-12-07T12:00:00Z,27.8217,-97.2040,0.0,1.2,13.0,2.8,'11111222,11111222,11111222' 
TCOON,ioos:station:TCOON:006:1,2008-12-07T13:00:00Z,27.8217,-97.2040,0.0,1.9,15.0,3.7,'11111222,11111222,11111222' 
TCOON,ioos:station:TCOON:006:1,2008-12-07T14:00:00Z,27.8217,-97.2040,0.0,1.8,16.0,3.3,'11111222,11111222,11111222' 
TCOON,ioos:station:TCOON:006:1,2008-12-07T15:00:00Z,27.8217,-97.2040,0.0,2.6,29.0,3.6,'11111222,11111222,11111222' 
TCOON,ioos:station:TCOON:006:1,2008-12-07T16:00:00Z,27.8217,-97.2040,0.0,2.8,50.0,4.3,'11111222,11111222,11111222' 
TCOON,ioos:station:TCOON:006:1,2008-12-07T17:00:00Z,27.8217,-97.2040,0.0,4.4,106.0,5.5,'11111222,11111222,11111222' 
TCOON,ioos:station:TCOON:006:1,2008-12-07T18:00:00Z,27.8217,-97.2040,0.0,3.5,90.0,5.6,'11111222,11111222,11111222' 
TCOON,ioos:station:TCOON:006:1,2008-12-07T19:00:00Z,27.8217,-97.2040,0.0,4.3,90.0,6.8,'11111222,11111222,11111222' 
TCOON,ioos:station:TCOON:006:1,2008-12-07T20:00:00Z,27.8217,-97.2040,0.0,3.4,96.0,6.1,'11111222,11111222,11111222' 
TCOON,ioos:station:TCOON:006:1,2008-12-07T21:00:00Z,27.8217,-97.2040,0.0,3.3,97.0,5.4,'11111222,11111222,11111222' 
TCOON,ioos:station:TCOON:006:1,2008-12-07T22:00:00Z,27.8217,-97.2040,0.0,4.8,89.0,6.3,'11111222,11111222,11111222' 
TCOON,ioos:station:TCOON:006:1,2008-12-07T23:00:00Z,27.8217,-97.2040,0.0,3.8,89.0,5.0,'11111222,11111222,11111222' 
TCOON,ioos:station:TCOON:006:1,2008-12-08T00:00:00Z,27.8217,-97.2040,0.0,2.9,104.0,4.3,'11111222,11111222,11111222' 
TCOON,ioos:station:TCOON:006:1,2008-12-08T01:00:00Z,27.8217,-97.2040,0.0,2.2,107.0,5.3,'11111222,11111222,11111222' 
TCOON,ioos:station:TCOON:006:1,2008-12-08T02:00:00Z,27.8217,-97.2040,0.0,2.6,109.0,3.9,'11111222,11111222,11111222' 
TCOON,ioos:station:TCOON:006:1,2008-12-08T03:00:00Z,27.8217,-97.2040,0.0,2.6,135.0,4.6,'11111222,11111222,11111222' 
TCOON,ioos:station:TCOON:006:1,2008-12-08T04:00:00Z,27.8217,-97.2040,0.0,3.1,131.0,4.1,'11111222,11111222,11111222' 
TCOON,ioos:station:TCOON:006:1,2008-12-08T05:00:00Z,27.8217,-97.2040,0.0,3.5,143.0,4.1,'11111222,11111222,11111222' 
TCOON,ioos:station:TCOON:006:1,2008-12-08T06:00:00Z,27.8217,-97.2040,0.0,3.0,154.0,4.7,'11111222,11111222,11111222' 
TCOON,ioos:station:TCOON:006:1,2008-12-08T07:00:00Z,27.8217,-97.2040,0.0,2.0,135.0,3.5,'11111222,11111222,11111222' 
TCOON,ioos:station:TCOON:006:1,2008-12-08T08:00:00Z,27.8217,-97.2040,0.0,3.5,144.0,5.1,'11111222,11111222,11111222' 
TCOON,ioos:station:TCOON:006:1,2008-12-08T09:00:00Z,27.8217,-97.2040,0.0,2.6,154.0,3.5,'11111222,11111222,11111222' 
TCOON,ioos:station:TCOON:006:1,2008-12-08T10:00:00Z,27.8217,-97.2040,0.0,2.7,133.0,4.0,'11111222,11111222,11111222' 
TCOON,ioos:station:TCOON:006:1,2008-12-08T11:00:00Z,27.8217,-97.2040,0.0,3.1,136.0,4.3,'11111222,11111222,11111222' 
TCOON,ioos:station:TCOON:006:1,2008-12-08T12:00:00Z,27.8217,-97.2040,0.0,3.2,142.0,3.6,'11111222,11111222,11111222' 
TCOON,ioos:station:TCOON:006:1,2008-12-08T13:00:00Z,27.8217,-97.2040,0.0,3.3,139.0,4.2,'11111222,11111222,11111222' 
TCOON,ioos:station:TCOON:006:1,2008-12-08T14:00:00Z,27.8217,-97.2040,0.0,5.1,145.0,6.2,'11111222,11111222,11111222' 
TCOON,ioos:station:TCOON:006:1,2008-12-08T15:00:00Z,27.8217,-97.2040,0.0,3.4,135.0,5.3,'11111222,11111222,11111222' 
TCOON,ioos:station:TCOON:006:1,2008-12-08T16:00:00Z,27.8217,-97.2040,0.0,4.5,148.0,5.6,'11111222,11111222,11111222' 
TCOON,ioos:station:TCOON:006:1,2008-12-08T17:00:00Z,27.8217,-97.2040,0.0,4.8,145.0,6.4,'11111222,11111222,11111222' 
TCOON,ioos:station:TCOON:006:1,2008-12-08T18:00:00Z,27.8217,-97.2040,0.0,4.3,139.0,5.6,'11111222,11111222,11111222' 
TCOON,ioos:station:TCOON:006:1,2008-12-08T19:00:00Z,27.8217,-97.2040,0.0,4.4,137.0,6.8,'11111222,11111222,11111222' 
TCOON,ioos:station:TCOON:006:1,2008-12-08T20:00:00Z,27.8217,-97.2040,0.0,5.1,135.0,6.8,'11111222,11111222,11111222' 
TCOON,ioos:station:TCOON:006:1,2008-12-08T21:00:00Z,27.8217,-97.2040,0.0,5.4,129.0,7.3,'11111222,11111222,11111222' 
TCOON,ioos:station:TCOON:006:1,2008-12-08T22:00:00Z,27.8217,-97.2040,0.0,5.4,127.0,7.5,'11111222,11111222,11111222' 
TCOON,ioos:station:TCOON:006:1,2008-12-08T23:00:00Z,27.8217,-97.2040,0.0,4.9,135.0,8.2,'11111222,11111222,11111222' 
TCOON,ioos:station:TCOON:006:1,2008-12-09T00:00:00Z,27.8217,-97.2040,0.0,6.1,143.0,7.8,'11111222,11111222,11111222' 
TCOON,ioos:station:TCOON:006:1,2008-12-09T01:00:00Z,27.8217,-97.2040,0.0,6.3,153.0,8.9,'11111222,11111222,11111222' 
TCOON,ioos:station:TCOON:006:1,2008-12-09T02:00:00Z,27.8217,-97.2040,0.0,5.7,153.0,7.5,'11111222,11111222,11111222' 
TCOON,ioos:station:TCOON:006:1,2008-12-09T03:00:00Z,27.8217,-97.2040,0.0,6.6,154.0,9.1,'11111222,11111222,11111222' 
TCOON,ioos:station:TCOON:006:1,2008-12-09T04:00:00Z,27.8217,-97.2040,0.0,7.6,154.0,9.6,'11111222,11111222,11111222' 
TCOON,ioos:station:TCOON:006:1,2008-12-09T05:00:00Z,27.8217,-97.2040,0.0,4.7,173.0,6.2,'11111222,11111222,11111222' 
TCOON,ioos:station:TCOON:006:1,2008-12-09T06:00:00Z,27.8217,-97.2040,0.0,3.5,165.0,5.1,'11111222,11111222,11111222' 
TCOON,ioos:station:TCOON:006:1,2008-12-09T07:00:00Z,27.8217,-97.2040,0.0,4.3,173.0,5.8,'11111222,11111222,11111222' 
TCOON,ioos:station:TCOON:006:1,2008-12-09T08:00:00Z,27.8217,-97.2040,0.0,4.4,152.0,6.0,'11111222,11111222,11111222' 
TCOON,ioos:station:TCOON:006:1,2008-12-09T09:00:00Z,27.8217,-97.2040,0.0,3.4,165.0,4.9,'11111222,11111222,11111222' 
TCOON,ioos:station:TCOON:006:1,2008-12-09T10:00:00Z,27.8217,-97.2040,0.0,4.0,164.0,5.1,'11111222,11111222,11111222' 
TCOON,ioos:station:TCOON:006:1,2008-12-09T11:00:00Z,27.8217,-97.2040,0.0,4.9,155.0,6.6,'11111222,11111222,11111222' 
TCOON,ioos:station:TCOON:006:1,2008-12-09T12:00:00Z,27.8217,-97.2040,0.0,6.5,165.0,8.8,'11111222,11111222,11111222' 
TCOON,ioos:station:TCOON:006:1,2008-12-09T13:00:00Z,27.8217,-97.2040,0.0,2.9,236.0,3.5,'11111222,11111222,11111222' 